Regional Weather Roundup
Issued by NWS San Angelo, TX

Home | Current Version | Previous Version | Text Only | Print | Product List | Glossary On
Versions: 1 2 3 4 5 6 7 8 9 10 11 12 13 14 15 16 17 18 19 20 21 22 23 24 25 26 27 28 29 30 31 32 33 34 35 36 37 38 39 40 41 42 43 44 45 46 47 48 49 50
000
ASUS44 KSJT 232110
RWRSJT
WEST CENTRAL TEXAS REGIONAL WEATHER ROUNDUP
NATIONAL WEATHER SERVICE SAN ANGELO TX
400 PM CDT SUN APR 23 2017

NOTE: "FAIR" INDICATES FEW OR NO CLOUDS BELOW 12,000 FEET WITH NO
SIGNIFICANT WEATHER AND/OR OBSTRUCTIONS TO VISIBILITY.

TXZ049-054-064>066-071>073-076>078-098-099-113-114-127-128-139-140-
154-155-168>170-232200
...LOCATIONS ACROSS WEST CENTRAL TEXAS...

CITY           SKY/WX    TMP DP  RH WIND       PRES   REMARKS
SAN ANGELO     SUNNY     72  29  20 VRB6      30.10F
ABILENE        SUNNY     69  33  26 W6        30.10F
DYESS AFB      SUNNY     72  35  26 SE7       30.08F
JUNCTION       SUNNY     76  30  18 NW9       30.08F
SWEETWATER     SUNNY     70  29  22 W7        30.12F
BROWNWOOD      SUNNY     72  36  26 N12       30.08F
COLEMAN        CLEAR     72  35  25 NE6       30.09F
SONORA         SUNNY     73  30  20 VRB6      30.13F
OZONA            N/A     72  32  23 CALM      30.12F
BRADY          NOT AVBL
$$

TEXAS PANHANDLE/OKLAHOMA PANHANDLE

CITY           SKY/WX    TMP DP  RH WIND       PRES   REMARKS
AMARILLO       SUNNY     71  35  26 S17G24    30.06F
BORGER         SUNNY     71  35  26 S15G23    30.04F
CANADIAN       SUNNY     72  28  19 S12G21    30.05F
DALHART        SUNNY     73  38  27 S20G35    30.00F
DUMAS          CLEAR     68  37  32 S18G26    30.02F
GUYMON         NOT AVBL
HEREFORD       CLEAR     71  35  27 SW18G24   30.07F
PAMPA          CLEAR     71  34  25 S15G22    30.07F
PERRYTON       SUNNY     70  38  31 S14G22    30.04F
$$

SOUTHERN PANHANDLE/SOUTH PLAINS/ROLLING PLAINS

CITY           SKY/WX    TMP DP  RH WIND       PRES   REMARKS
LUBBOCK        MOSUNNY   70  32  24 S15       30.09F
SNYDER         SUNNY    N/A N/A N/A CALM      30.11F
CHILDRESS      SUNNY     70  29  21 MISG      30.08F
SEMINOLE       CLEAR     68  37  31 SE9G18    30.11F
$$

PERMIAN BASIN

CITY           SKY/WX    TMP DP  RH WIND       PRES   REMARKS
MIDLAND        SUNNY     69  31  24 VRB5      30.11F
ODESSA         SUNNY     69  31  24 VRB7      30.11F
WINK           SUNNY     71  32  23 S10G17    30.08F
$$

FAR WEST/SOUTHWEST MOUNTAINS/TRANS PECOS

CITY           SKY/WX    TMP DP  RH WIND       PRES   REMARKS
ALPINE         CLEAR     73  29  20 E6        30.16F
DRYDEN           N/A     73  35  25 NE12      30.07F
EL PASO        MOSUNNY   77  27  15 S5        30.03F
FORT STOCKTON  SUNNY     72  33  24 SE8       30.09F
GUADALUPE PASS SUNNY     68  31  25 SE10G17   30.15F
MARFA          SUNNY     73  31  21 SE12G17   30.14F
PECOS          CLEAR     74  33  21 E16       30.07F
$$

DALLAS/FORT WORTH METROPLEX

CITY           SKY/WX    TMP DP  RH WIND       PRES   REMARKS
DFW AIRPORT    MOSUNNY   74  41  30 N13G18    30.05F
FTW MEACHAM    SUNNY     74  42  31 NW13      30.06F
DAL-EXECUTIVE  SUNNY     72  43  35 N14       30.05F
GRAND PRAIRIE  SUNNY     70  36  28 NW7       30.08F
ADDISON        SUNNY     72  39  30 N14G20    30.07F
MESQUITE       CLEAR     72  41  33 N13       30.06F
LANCASTER      CLEAR     71  44  37 N7G16     30.06F
$$

NORTH CENTRAL TEXAS

CITY           SKY/WX    TMP DP  RH WIND       PRES   REMARKS
SHRMAN/DENISON CLEAR     70  41  34 N16       30.08F
GAINESVILLE    SUNNY     70  38  30 NE9G22    30.10F
BRIDGEPORT     CLEAR     70  37  30 NW9       30.10F
DENTON         SUNNY     72  43  35 N10G20    30.07F
WAXAHACHIE     CLEAR     71  44  37 N16       30.07F
GRANBURY       CLEAR     74  40  29 N9        30.08F
$$

WESTERN NORTH TEXAS

CITY           SKY/WX    TMP DP  RH WIND       PRES   REMARKS
WICHITA FALLS  SUNNY     72  35  25 N12G18    30.09F
VERNON         CLEAR     72  22  15 W3        30.10F
BRECKENRIDGE   CLEAR     74  33  22 N8G17     30.09F HAZE
COMANCHE       SUNNY     71  38  30 N8G17     30.10F
$$

CENTRAL AND SOUTH CENTRAL TEXAS

CITY           SKY/WX    TMP DP  RH WIND       PRES   REMARKS
AUSTIN/BERGSTM SUNNY     76  41  28 N12G18    30.05F
WACO           SUNNY     73  43  33 N14G21    30.06F
HILLSBORO      CLEAR     71  42  35 N8G18     30.06F
TEMPLE         SUNNY     72  43  35 NW13      30.07F
KILLEEN-GRAY   SUNNY     71  39  31 N8G17     30.06F
FORT HOOD      SUNNY     72  39  30 N15       30.04F
GEORGETOWN     SUNNY     73  39  29 N9        30.07F
LAGO VISTA     FAIR      74  40  29 N7        30.08F
SAN MARCOS     SUNNY     75  41  29 N13       30.07F
NEW BRAUNFELS  SUNNY     77  41  27 N9        30.04F
RANDOLPH AFB   SUNNY     74  40  29 NW3G16    30.05F
SAN ANTONIO    SUNNY     76  41  28 N10       30.06F
STINSON        SUNNY     77  37  23 VRB6      30.03F
PLEASANTON     NOT AVBL
LA GRANGE      SUNNY     73  46  37 N14       30.03F
GIDDINGS       CLEAR     71  41  34 N8G18     30.06F
$$

EAST TEXAS

CITY           SKY/WX    TMP DP  RH WIND       PRES   REMARKS
PARIS          SUNNY     70  41  35 NW16G22   30.04F
CLARKSVILLE    NOT AVBL
TYLER          SUNNY     71  41  33 N13G22    30.02F
LONGVIEW       SUNNY     72  45  37 NW10G21   29.99F
PALESTINE      CLEAR     71  45  39 N9G18     30.05F
NACOGDOCHES    SUNNY     72  46  40 NW10G18   29.98F
$$

TEXAS HILL COUNTRY AND EDWARDS PLATEAU

CITY           SKY/WX    TMP DP  RH WIND       PRES   REMARKS
LLANO          CLEAR     73  37  27 NE5       30.10F
HORSESHOE BAY  FAIR      74  38  27 NW6G16    30.08F
KERRVILLE      SUNNY     72  38  29 N9        30.09F
FREDERICKSBRG  SUNNY     69  34  26 N8        30.09F
ROCKSPRINGS    CLEAR     70  36  28 NE3       30.12F
HONDO          SUNNY     77  41  27 VRB5      30.06F
UVALDE         CLEAR     72  44  35 CALM      30.08F
DEL RIO        NOT AVBL
$$

SOUTHEAST TEXAS

CITY           SKY/WX    TMP DP  RH WIND       PRES   REMARKS
COLLEGE STN    SUNNY     73  45  36 N15G22    30.04F
CALDWELL       NOT AVBL
CROCKETT       CLEAR     72  46  40 NW9G18    30.05F
BRENHAM        SUNNY     74  44  34 NW9G18    30.05F
HUNTSVILLE     SUNNY     72  43  35 MISG      30.02F
CONROE         MOSUNNY   71  47  42 NW12      30.02F
HOUSTON BUSH   MOSUNNY   72  48  42 N21       30.01F
HOUSTON HOBBY  MOSUNNY   72  46  39 NW14G24   30.00F
PERLAND        SUNNY     74  45  35 N14       30.01F
WHARTON        CLEAR     72  45  38 N14G21    30.03F
$$

THE UPPER TEXAS COAST

CITY           SKY/WX    TMP DP  RH WIND       PRES   REMARKS
ORANGE         MOCLDY    70  51  51 N13       29.99F
PORT ARTHUR    MOSUNNY   74  49  41 N16       29.97F
GALVESTON      SUNNY     74  52  46 N14       30.00F
ANGLETON       SUNNY     73  50  44 N9G20     30.01F
BAY CITY       CLEAR     73  50  44 N13G24    30.01F
$$

TEXAS COASTAL BEND, RIO GRANDE PLAINS DEEP SOUTH TEXAS

CITY           SKY/WX    TMP DP  RH WIND       PRES   REMARKS
VICTORIA       SUNNY     76  45  33 N10G21    30.03F
BEEVILLE       FAIR      77  45  32 N6G21     30.05F
ROCKPORT       SUNNY     79  41  25 N13G20    30.02F
PORT ARANSAS   CLEAR     75  44  32 N14       30.03F
PORT LAVACA    CLEAR     74  50  41 NW16      30.03F
CORPUS CHRISTI SUNNY     76  45  33 NW12G23   30.04F
KINGSVILLE NAS SUNNY     79  44  28 N15       30.04F
COTULLA        SUNNY     78  35  21 NE6       30.07F
LAREDO         SUNNY     77  40  26 NW14      30.06F
BROWNSVILLE    SUNNY     78  48  34 N10       30.04F
PORT ISABEL    SUNNY     75  46  35 NE13G20   30.04F
HEBBRONVILLE   CLEAR     73  39  28 N3        30.07F
MCALLEN        SUNNY     80  43  26 N12       30.05F
WESLACO        SUNNY     76  42  29 N9        30.04F
FALFURRIAS     CLEAR     76  38  25 CALM      30.05F
EDINBURG       CLEAR     79  38  22 NW6       30.05F
$$



USA.gov is the U.S. government's official web portal to all federal, state and local government web resources and services.